Find Starlink 4356

NORAD ID: 53224 Int'l Des: 2022-084 Owner: SPXS Country: US Constellation: starlink operational
LEOCIRCULARRETROGRADESSO

Live Position

Loading 3D Globe...

About Starlink 4356

Description loading...

Upcoming Passes

Passes for default location (London). Set your location on the main map for personalized predictions.

Altitude History

Loading altitude history...

Two-Line Element Set

1 53224U 22084AM 26107.14609653 -.00000041 00000-0 13473-5 0 9991
2 53224 97.6033 167.9620 0001719 88.7409 271.4015 15.05647327205097
Epoch: Apr 17, 2026 • Age: 12 hours

Current Status

Altitude 557.6 km
Velocity 7.58 km/s
Sub-Earth Point -19.58°S, 93.35°W
Launch Date Jul 22, 2022
Age 3.7 years
Type internet

Technical Details

Classification Payload
Mass 297.00 kg
Dry Mass 275.00 kg
Total Mass 297.00 kg
Length 0.20 m
Diameter 2.80 m
Span 9.00 m
Shape Box + pan
Manufacturer SPXS
Bus Type Starlink
Phase Status In Orbit
Owner/State SPXS/US

Most Searched